Location: Columbia
(38.9520°N, 92.3340°W)
Time: 02:51:47
(UTC-05:00)

SJ-11-01 - Pass Details

Date: 24 June 2018
Orbit: 684 x 702 km, 98.1° (Epoch: 22 July)

Event Time Altitude Azimuth Distance (km) Brightness Sun altitude
Rises 21:04:46 0° 165° (SSE) 3,073 7.2 -5.0°
Reaches altitude 10° 21:07:00 10° 164° (SSE) 2,158 6.4 -5.4°
Maximum altitude 21:11:45 86° 76° (ENE) 707 4.3 -6.1°
Drops below altitude 10° 21:16:30 10° 348° (NNW) 2,166 7.7 -6.9°
Sets 21:18:46 0° 348° (NNW) 3,086 8.5 -7.2°
